| time (UTC) | temp F | wind direction | speed MPH | gust MPH | rain 1hr in | rain 24hr in | rain mn in | humidity % | barometer mb |
| 20260905130336 | 68 | 192 | 1.0 | 3.0 | 0.00 | 0.82 | 0.42 | 95 | 1012.7 |
| 20260905124836 | 68 | 243 | 0.0 | 2.0 | 0.00 | 0.82 | 0.42 | 96 | 1012.6 |
| 20260905124335 | 68 | 243 | 0.0 | 2.0 | 0.01 | 0.82 | 0.42 | 96 | 1012.9 |
| 20260905123835 | 68 | 243 | 0.0 | 2.0 | 0.01 | 0.82 | 0.42 | 96 | 1012.5 |
| 20260905123335 | 68 | 344 | 0.0 | 2.0 | 0.03 | 0.82 | 0.42 | 96 | 1012.6 |
| 20260905122834 | 68 | 344 | 0.0 | 2.0 | 0.04 | 0.82 | 0.42 | 96 | 1013.0 |
| 20260905121835 | 68 | 109 | 0.0 | 3.0 | 0.10 | 0.82 | 0.42 | 96 | 1013.0 |
| 20260905121334 | 68 | 109 | 0.0 | 5.0 | 0.13 | 0.82 | 0.42 | 96 | 1012.8 |
| 20260905120834 | 68 | 88 | 1.0 | 5.0 | 0.16 | 0.82 | 0.42 | 95 | 1012.7 |
| 20260905120334 | 68 | 109 | 3.0 | 3.0 | 0.17 | 0.82 | 0.42 | 95 | 1012.8 |
| 20260905115834 | 67 | 115 | 0.0 | 3.0 | 0.18 | 0.82 | 0.42 | 95 | 1013.0 |
| 20260905115333 | 67 | 115 | 0.0 | 3.0 | 0.18 | 0.82 | 0.42 | 95 | 1013.3 |
| 20260905114333 | 67 | 171 | 0.0 | 2.0 | 0.17 | 0.81 | 0.41 | 95 | 1013.7 |
| 20260905113833 | 67 | 171 | 0.0 | 2.0 | 0.17 | 0.81 | 0.41 | 95 | 1013.7 |
| 20260905113333 | 67 | 171 | 0.0 | 3.0 | 0.15 | 0.79 | 0.39 | 95 | 1013.8 |
| 20260905112833 | 67 | 221 | 1.0 | 3.0 | 0.15 | 0.78 | 0.38 | 95 | 1014.2 |
| 20260905112333 | 67 | 190 | 0.0 | 2.0 | 0.12 | 0.75 | 0.35 | 95 | 1014.3 |
| 20260905111833 | 67 | 190 | 0.0 | 3.0 | 0.09 | 0.72 | 0.32 | 95 | 1014.4 |
| 20260905111332 | 67 | 190 | 2.0 | 3.0 | 0.07 | 0.69 | 0.29 | 95 | 1014.5 |
| 20260905110332 | 67 | 338 | 0.0 | 3.0 | 0.03 | 0.65 | 0.25 | 95 | 1014.3 |
| 20260905105332 | 67 | 218 | 1.0 | 3.0 | 0.03 | 0.64 | 0.24 | 95 | 1013.7 |
| 20260905104832 | 67 | 129 | 0.0 | 2.0 | 0.03 | 0.64 | 0.24 | 95 | 1013.6 |
| 20260905104331 | 67 | 103 | 0.0 | 4.0 | 0.03 | 0.64 | 0.24 | 95 | 1013.8 |
| 20260905103831 | 67 | 103 | 0.0 | 5.0 | 0.04 | 0.64 | 0.24 | 95 | 1013.8 |
| 20260905103331 | 67 | 88 | 2.0 | 5.0 | 0.05 | 0.64 | 0.24 | 95 | 1013.8 |
| 20260905102831 | 67 | 97 | 1.0 | 5.0 | 0.14 | 0.63 | 0.23 | 95 | 1013.9 |
| 20260905102331 | 67 | 74 | 2.0 | 4.0 | 0.14 | 0.63 | 0.23 | 95 | 1014.3 |
| 20260905101331 | 67 | 86 | 1.0 | 2.0 | 0.15 | 0.62 | 0.22 | 94 | 1014.3 |
| 20260905100331 | 68 | 115 | 0.0 | 5.0 | 0.21 | 0.62 | 0.22 | 94 | 1014.4 |
| 20260905095830 | 68 | 81 | 3.0 | 5.0 | 0.21 | 0.61 | 0.21 | 94 | 1014.3 |
| 20260905095330 | 68 | 288 | 2.0 | 3.0 | 0.21 | 0.61 | 0.21 | 94 | 1014.9 |
| 20260905094830 | 68 | 288 | 0.0 | 1.0 | 0.21 | 0.61 | 0.21 | 94 | 1015.1 |
| 20260905094330 | 68 | 288 | 0.0 | 2.0 | 0.21 | 0.61 | 0.21 | 94 | 1015.2 |
| 20260905093329 | 68 | 67 | 0.0 | 4.0 | 0.19 | 0.59 | 0.19 | 94 | 1014.9 |
| 20260905093001 | 68 | 158 | 1.0 | 4.0 | 0.09 | 0.49 | 0.09 | 94 | 1014.8 |
| 20260904172322 | 92 | 287 | 2.0 | 10.0 | 0.00 | 0.00 | 0.00 | 63 | 1014.5 |
| 20260904171321 | 92 | 26 | 3.0 | 9.0 | 0.00 | 0.00 | 0.00 | 60 | 1014.6 |
| 20260904170821 | 93 | 293 | 2.0 | 9.0 | 0.00 | 0.00 | 0.00 | 61 | 1014.9 |
| 20260904170351 | 93 | 292 | 2.0 | 11.0 | 0.00 | 0.00 | 0.00 | 60 | 1014.9 |
| 20260904165820 | 93 | 355 | 6.0 | 14.0 | 0.00 | 0.00 | 0.00 | 59 | 1014.9 |
| 20260904165320 | 93 | 301 | 8.0 | 14.0 | 0.00 | 0.00 | 0.00 | 60 | 1015.0 |
| 20260904164320 | 93 | 27 | 4.0 | 7.0 | 0.00 | 0.00 | 0.00 | 58 | 1015.0 |
| 20260904163820 | 93 | 333 | 2.0 | 9.0 | 0.00 | 0.00 | 0.00 | 61 | 1015.0 |
| 20260904163350 | 93 | 310 | 2.0 | 9.0 | 0.00 | 0.00 | 0.00 | 60 | 1015.0 |
| 20260904162849 | 93 | 280 | 3.0 | 10.0 | 0.00 | 0.00 | 0.00 | 60 | 1015.0 |
| 20260904162349 | 92 | 17 | 3.0 | 10.0 | 0.00 | 0.00 | 0.00 | 61 | 1015.0 |
| 20260904161849 | 92 | 291 | 5.0 | 9.0 | 0.00 | 0.00 | 0.00 | 62 | 1015.1 |
| 20260904160849 | 92 | 176 | 2.0 | 9.0 | 0.00 | 0.00 | 0.00 | 62 | 1015.1 |
| 20260904155849 | 91 | 316 | 3.0 | 9.0 | 0.00 | 0.00 | 0.00 | 64 | 1015.2 |
| 20260904155348 | 91 | 327 | 1.0 | 9.0 | 0.00 | 0.00 | 0.00 | 63 | 1015.3 |
| 20260904154848 | 91 | 17 | 4.0 | 9.0 | 0.00 | 0.00 | 0.00 | 64 | 1015.2 |
| 20260904152848 | 90 | 42 | 2.0 | 6.0 | 0.00 | 0.00 | 0.00 | 66 | 1015.2 |
| 20260904152347 | 90 | 340 | 4.0 | 9.0 | 0.00 | 0.00 | 0.00 | 70 | 1015.2 |
| 20260904151347 | 89 | 26 | 3.0 | 5.0 | 0.00 | 0.00 | 0.00 | 69 | 1015.1 |
| 20260904145846 | 89 | 321 | 0.0 | 6.0 | 0.00 | 0.00 | 0.00 | 68 | 1014.9 |
| 20260904144847 | 89 | 269 | 3.0 | 5.0 | 0.00 | 0.00 | 0.00 | 70 | 1014.9 |
| 20260904144346 | 88 | 300 | 4.0 | 6.0 | 0.00 | 0.00 | 0.00 | 72 | 1014.9 |
| 20260904143846 | 88 | 279 | 0.0 | 6.0 | 0.00 | 0.00 | 0.00 | 71 | 1014.9 |
| 20260904142345 | 86 | 187 | 1.0 | 4.0 | 0.00 | 0.00 | 0.00 | 77 | 1014.6 |
| 20260904141846 | 85 | 253 | 0.0 | 4.0 | 0.00 | 0.00 | 0.00 | 76 | 1014.6 |
| 20260904141345 | 85 | 22 | 0.0 | 4.0 | 0.00 | 0.00 | 0.00 | 79 | 1014.5 |
| 20260904140845 | 84 | 233 | 0.0 | 5.0 | 0.00 | 0.00 | 0.00 | 77 | 1014.6 |
| 20260904140345 | 84 | 259 | 4.0 | 5.0 | 0.00 | 0.00 | 0.00 | 78 | 1014.7 |
| 20260904135845 | 83 | 211 | 1.0 | 4.0 | 0.00 | 0.00 | 0.00 | 80 | 1014.7 |
| 20260904135344 | 82 | 91 | 2.0 | 4.0 | 0.00 | 0.00 | 0.00 | 80 | 1014.5 |
| 20260904134845 | 82 | 246 | 0.0 | 4.0 | 0.00 | 0.00 | 0.00 | 81 | 1014.6 |
| 20260904134345 | 81 | 275 | 1.0 | 4.0 | 0.00 | 0.00 | 0.00 | 81 | 1014.6 |
| 20260904133344 | 81 | 254 | 2.0 | 2.0 | 0.00 | 0.00 | 0.00 | 82 | 1014.6 |
| 20260904132844 | 80 | 192 | 0.0 | 3.0 | 0.00 | 0.00 | 0.00 | 84 | 1014.3 |
| 20260904132344 | 80 | 192 | 0.0 | 3.0 | 0.00 | 0.00 | 0.00 | 84 | 1014.4 |
| 20260904131844 | 79 | 5 | 2.0 | 4.0 | 0.00 | 0.00 | 0.00 | 86 | 1014.4 |
| 20260904131343 | 79 | 161 | 1.0 | 4.0 | 0.00 | 0.00 | 0.00 | 87 | 1014.3 |
| 20260904130843 | 78 | 239 | 0.0 | 4.0 | 0.00 | 0.00 | 0.00 | 89 | 1014.2 |